CZ-6A DEB

Satellite information

Favourite Embed

Satellite Type and Status

DEBRISIN ORBIT

Key statistics

Satellite CZ-6A DEB at a glance.

Uptime

335

Days in orbit

Revolutions

≈ 14.6

Per day

Orbit

LEO

Low Earth Orbit

Inclination

89.0

Latest

Satellite identification and parameters

Extended collection of information and parameters for CZ-6A DEB.

Object identification

Identified? True

Debris? True

Object name: CZ-6A DEB

International designator: 2024-140MX

Object number (NORAD): 61081

Object ID (CCSDS): 61081

Country: PEOPLES REPUBLIC OF CHINA (PRC)

Current information (Y/N): Y

RCS size: SMALL

Orbital parameters

Period: 98.641 minutes

Inclination: 88.9877 deg

SMA: 7071.828 km

Apoapsis: 777.286 km

Periapsis: 610.1 km

RAAN: 310.5705 deg

Eccentricy: 0.0118206

Argument of periapsis: 357.7644 deg

Mean anomaly: 2.3023 deg

Mean motion: 14.59839913 rev/day

Mean motion (dot): 0.00001844 rev/day2

B* drag term: 0.00034624 1/REarth

Two-line elements (TLE)

Creation date: July 6, 2025, 10:36 p.m.

Reference frame: TEME

Reference center: EARTH

Epoch: July 6, 2025, 7:38 p.m. UTC

TLE line 0: 0 CZ-6A DEB

TLE line 1: 1 61081U 24140MX 25187.81857905 .00001844 00000-0 34624-3 0 9992

TLE line 2: 2 61081 88.9877 310.5705 0118206 357.7644 2.3023 14.59839913 45832

Live tracking on map

Real-time ground track for satellite CZ-6A DEB.

In-orbit conjunctions

A list of the most updated potential collisions computed for object CZ-6A DEB.

Target Orbit TCA Probability of collision Miss distance Type
COSMOS 407 LEO 2025-04-21 22:25:24 0.000553139 321.0 (m) PAYLOAD
CZ-4C R/B SSO 2025-03-11 03:25:54 0.0002219647 550.0 (m) ROCKET BODY
CZ-4 DEB SSO 2025-02-20 17:54:52 0.003018312 200.0 (m) DEBRIS
SL-8 R/B LEO 2024-12-15 23:52:27 0.0002594551 919.0 (m) ROCKET BODY
DELTA 1 DEB SSO 2024-11-02 19:35:22 0.0001230671 535.0 (m) DEBRIS

Associated space launch

18 Low Earth Orbit communication satellites with Ku, Q and V band payloads for the G60 constellation operated by Shanghai Spacecom Satellite Technology (SSST) with funding backed by the Shanghai local government. Initial constellation will consist of 1296 satellites by 2027 with long term plans to expand it to 12000 satellites.

CZ-6A DEB was lifted into orbit during the mission ‘Long March 6A | G60 Polar Group 01’, on board a Long March 6A space rocket.

The launch took place on Aug. 6, 2024, 6:42 a.m. from Launch Complex 9A.

For more information about the launch, click the button.

Launch to space Long March 6A | G60 Polar Group 01
Long March 6A | G60 Polar Group 01

Agency: N/A

Status: Launch Successful

Launch date: Aug. 6, 2024, 6:42 a.m. UTC

Rocket: Long March 6A

Launch pad: Launch Complex 9A

Location: Taiyuan Satellite Launch Center, People's Republic of China

...

Latest news about this satellite

News about space launch
Brightness of first Chinese broadband constellation satellites alarms astronomers

The first satellites of a Chinese broadband constellation are significantly brighter than those of Western systems, posing a new challenge for astronomers.

News about space launch
Chinese rocket stage breaks up into cloud of more than 700 pieces of space debris

HELSINKI — A Chinese Long March 6A rocket’s upper stage has fragmented into a cloud of over 700 pieces of space debris, adding to concerns about long-term orbital safety. China […]

News about space launch
China's Thousand Sails Megaconstellation Kicks Off with Dangerous Debris Field

China's Thousand Sails Megaconstellation Kicks Off with Dangerous Debris Field


Newsletter sign-up

Weekly statistics, charts and insights to help you stay on top of the space industry.